| time (UTC) | temp F | wind direction | speed MPH | gust MPH | rain 1hr in | rain 24hr in | rain mn in | humidity % | barometer mb |
| 20260510011600 | 50 | 283 | 5.0 | 9.0 | 0.00 | 0.69 | 0.69 | 1 | 1011.1 |
| 20260510010044 | 50 | 93 | 4.0 | 11.0 | 0.00 | 0.69 | 0.69 | 1 | 1011.0 |
| 20260510004540 | 50 | 289 | 3.0 | 8.0 | 0.00 | 0.69 | 0.69 | 1 | 1010.7 |
| 20260510003036 | 50 | 284 | 4.0 | 8.0 | 0.00 | 0.69 | 0.69 | 1 | 1010.7 |
| 20260510001532 | 50 | 291 | 4.0 | 9.0 | 0.00 | 0.69 | 0.69 | 1 | 1010.6 |
| 20260510000036 | 50 | 237 | 6.0 | 12.0 | 0.00 | 0.69 | 0.69 | 1 | 1010.0 |
| 20260509234548 | 50 | 243 | 4.0 | 8.0 | 0.00 | 0.69 | 0.69 | 1 | 1009.9 |
| 20260509233003 | 50 | 65 | 2.0 | 6.0 | 0.00 | 0.69 | 0.69 | 1 | 1009.8 |
| 20260509231520 | 50 | 245 | 4.0 | 9.0 | 0.00 | 0.69 | 0.69 | 13 | 1009.9 |
| 20260509230041 | 50 | 285 | 2.0 | 8.0 | 0.00 | 0.69 | 0.69 | 31 | 1010.0 |
| 20260509224524 | 50 | 311 | 4.0 | 8.0 | 0.00 | 0.69 | 0.69 | 36 | 1010.1 |
| 20260509223052 | 51 | 290 | 2.0 | 9.0 | 0.00 | 0.69 | 0.69 | 27 | 1010.1 |
| 20260509221525 | 51 | 135 | 1.0 | 8.0 | 0.00 | 0.69 | 0.69 | 27 | 1009.9 |
| 20260509220046 | 50 | 300 | 4.0 | 12.0 | 0.00 | 0.69 | 0.69 | 54 | 1009.8 |
| 20260509214512 | 50 | 302 | 6.0 | 16.0 | 0.00 | 0.69 | 0.69 | 60 | 1010.1 |
| 20260509213045 | 50 | 240 | 3.0 | 12.0 | 0.00 | 0.69 | 0.69 | 58 | 1010.3 |
| 20260509211520 | 50 | 84 | 3.0 | 11.0 | 0.01 | 0.69 | 0.69 | 57 | 1010.3 |
| 20260509210051 | 50 | 330 | 3.0 | 11.0 | 0.03 | 0.69 | 0.69 | 46 | 1010.5 |
| 20260509204522 | 50 | 14 | 4.0 | 9.0 | 0.05 | 0.69 | 0.69 | 33 | 1010.3 |
| 20260509203101 | 49 | 312 | 4.0 | 10.0 | 0.08 | 0.69 | 0.69 | 9 | 1010.7 |
| 20260509201526 | 49 | 336 | 4.0 | 11.0 | 0.10 | 0.68 | 0.68 | 1 | 1011.0 |
| 20260509200051 | 49 | 247 | 5.0 | 13.0 | 0.11 | 0.66 | 0.66 | 1 | 1011.0 |
| 20260509194527 | 49 | 291 | 8.0 | 18.0 | 0.14 | 0.64 | 0.64 | 1 | 1011.2 |
| 20260509193057 | 49 | 330 | 6.0 | 16.0 | 0.14 | 0.61 | 0.61 | 1 | 1011.4 |
| 20260509191533 | 49 | 301 | 5.0 | 13.0 | 0.14 | 0.57 | 0.57 | 1 | 1011.4 |
| 20260509190057 | 49 | 303 | 6.0 | 13.0 | 0.13 | 0.55 | 0.55 | 1 | 1011.6 |
| 20260509184542 | 49 | 255 | 6.0 | 11.0 | 0.10 | 0.50 | 0.50 | 1 | 1011.7 |
| 20260509183113 | 48 | 302 | 7.0 | 13.0 | 0.11 | 0.47 | 0.47 | 1 | 1011.9 |
| 20260509181545 | 48 | 306 | 2.0 | 10.0 | 0.10 | 0.44 | 0.44 | 1 | 1011.7 |
| 20260509180004 | 48 | 266 | 4.0 | 10.0 | 0.09 | 0.42 | 0.42 | 1 | 1011.6 |
| 20260509174538 | 48 | 241 | 5.0 | 11.0 | 0.08 | 0.40 | 0.40 | 1 | 1011.4 |
| 20260509173010 | 49 | 323 | 4.0 | 13.0 | 0.06 | 0.36 | 0.36 | 1 | 1011.4 |
| 20260509171552 | 49 | 277 | 5.0 | 9.0 | 0.05 | 0.34 | 0.34 | 1 | 1011.2 |
| 20260509170011 | 48 | 220 | 5.0 | 10.0 | 0.06 | 0.33 | 0.33 | 1 | 1011.2 |
| 20260509164545 | 48 | 300 | 2.0 | 9.0 | 0.07 | 0.32 | 0.32 | 1 | 1011.4 |
| 20260509163023 | 47 | 276 | 4.0 | 13.0 | 0.07 | 0.30 | 0.30 | 1 | 1011.7 |
| 20260509161601 | 47 | 78 | 5.0 | 13.0 | 0.07 | 0.28 | 0.28 | 1 | 1011.9 |
| 20260509160013 | 47 | 275 | 6.0 | 12.0 | 0.06 | 0.27 | 0.27 | 1 | 1012.0 |
| 20260509154653 | 48 | 232 | 4.0 | 10.0 | 0.05 | 0.25 | 0.25 | 1 | 1012.1 |